Location: Celina Division
(33.3022°N, 96.7580°W)
Time: 14:41:40
(UTC+00:00)

DUCHIFAT 1 - Pass Details

Date: 04 April 2023
Orbit: 567 x 581 km, 98.1° (Epoch: 28 May)

Event Time Altitude Azimuth Distance (km) Brightness Sun altitude
Rises 09:44:05 0° 9° (N) 2,777 ? -29.8°
Reaches altitude 10° 09:46:15 10° 8° (N) 1,874 ? -29.4°
Enters shadow 09:47:41 21° 5° (N) 1,292 ? -29.2°
